Flag for Kazakhstan Weather past 2 weeks in Almaty, Kazakhstan

Now
27 °F

Light snow. Ice fog.


Feels Like: 20 °F
Forecast: 20 / 49 °F
Wind: 6 mph from West

Location: Almaty Airport

Current Time: Apr 2, 2015 at 10:52:37 AM

Latest Report: Apr 2, 2015 at 10:30 AM


Visibility: 3 mi

Pressure: 30.18 "Hg

Humidity: 86%

Dew point: 23 °F

Location of AlmatyLocation

Historic Weather in Almaty — Graph

°F

Almaty temperature yesterday

Maximum temperature yesterday: 39 °F (at 4:00 PM)
Minimum temperature yesterday: 18 °F (at 6:30 AM)
Average temperature yesterday: 28 °F

Past Weeks' High & Low Weather Summary

 TemperatureHumidityPressure
High75 °F (Mar 23, 3:30 PM)93% (Mar 25, 5:30 AM)30.57 "Hg (Mar 25, 5:30 AM)
Low10 °F (Mar 31, 6:30 AM)14% (Mar 23, 3:30 PM)29.50 "Hg (Mar 24, 7:30 AM)
Average42 °F64%30.15 "Hg
* Reported Mar 18 9:00 AM — Apr 2 9:30 AM, Almaty, Weather by CustomWeather, © 2015

Note: Actual official high and low records may vary slightly from our data, if they occured in-between our weather recording intervals... More about our weather records

Advertising

Almaty weather history for previous 24 hours

 ConditionsComfort  
Time TempWeatherWind HumidityBarometerVisibility
9:30 AM
Thu, Apr 2
25 °FSnow. Ice fog.3 mph86%30.18 "Hg1 mi
9:00 AM25 °FLight snow. Ice fog.8 mph86%30.15 "Hg1 mi
8:30 AM27 °FLight snow. Ice fog.6 mph86%30.15 "Hg2 mi
8:00 AM27 °FLight snow. Ice fog.6 mph80%30.12 "Hg2 mi
7:30 AM27 °FLight snow. Ice fog.8 mph74%30.12 "Hg3 mi
7:00 AM27 °FMostly cloudy.10 mph74%30.12 "HgN/A
6:30 AM28 °FMostly cloudy.10 mph74%30.12 "HgN/A
6:00 AM30 °FMostly cloudy.8 mph69%30.12 "HgN/A
5:30 AM30 °FMostly cloudy.8 mph69%30.09 "HgN/A
5:00 AM30 °FMostly cloudy.8 mph69%30.09 "HgN/A
4:30 AM30 °FMostly cloudy.6 mph69%30.09 "HgN/A
4:00 AM30 °FMostly cloudy.8 mph69%30.09 "HgN/A
3:30 AM30 °FMostly cloudy.6 mph69%30.07 "HgN/A
3:00 AM28 °FMostly cloudy.3 mph74%30.07 "HgN/A
2:30 AM28 °FMostly cloudy.1 mph74%30.07 "HgN/A
2:00 AM28 °FMostly cloudy.3 mph69%30.09 "HgN/A
1:30 AM28 °FOvercast.3 mph74%30.09 "HgN/A
1:00 AM30 °FOvercast.3 mph69%30.07 "HgN/A
12:30 AM30 °FOvercast.3 mph69%30.07 "HgN/A
12:00 AM30 °FOvercast.3 mph64%30.04 "HgN/A
11:30 PM
Wed, Apr 1
30 °FOvercast.3 mph64%30.04 "HgN/A
11:00 PM30 °FOvercast.3 mph59%30.04 "HgN/A
10:30 PM32 °FOvercast.1 mph55%30.04 "HgN/A
10:00 PM32 °FOvercast.1 mph51%30.04 "HgN/A
9:30 PM32 °FPassing clouds.1 mph51%30.04 "HgN/A
9:00 PM32 °FPartly cloudy.6 mph55%30.04 "HgN/A
8:30 PM34 °FPassing clouds.8 mph51%30.04 "HgN/A
8:00 PM34 °FPassing clouds.10 mph56%30.04 "HgN/A
7:30 PM36 °FPassing clouds.8 mph52%30.01 "HgN/A
7:00 PM37 °FPartly sunny.6 mph48%29.98 "HgN/A
6:30 PM37 °FBroken clouds.6 mph45%29.98 "HgN/A
6:00 PM37 °FBroken clouds.6 mph48%29.98 "HgN/A
5:30 PM37 °FBroken clouds.6 mph52%30.01 "HgN/A
5:00 PM37 °FBroken clouds.6 mph52%29.98 "HgN/A
4:30 PM37 °FBroken clouds.3 mph56%30.01 "HgN/A
4:00 PM39 °FPartly sunny.6 mph45%29.98 "HgN/A
3:30 PM37 °FPartly sunny.3 mph45%29.98 "HgN/A
3:00 PM37 °FPartly sunny.6 mph48%29.98 "HgN/A
2:30 PM37 °FPartly sunny.6 mph52%30.01 "HgN/A
2:00 PM36 °FBroken clouds.8 mph60%29.98 "HgN/A
1:30 PM36 °FBroken clouds.6 mph56%29.98 "Hg3 mi
1:00 PM36 °FBroken clouds.3 mph60%30.01 "Hg3 mi
12:30 PM32 °FBroken clouds.3 mph64%30.01 "Hg2 mi
12:00 PM30 °FBroken clouds.1 mph64%30.01 "HgN/A
11:30 AM28 °FBroken clouds.3 mph64%30.01 "HgN/A
11:00 AM30 °FBroken clouds.1 mph59%30.01 "HgN/A
10:30 AM28 °FBroken clouds.1 mph64%30.04 "HgN/A
10:00 AM27 °FBroken clouds.1 mph64%30.04 "HgN/A
Weather by CustomWeather, © 2015

See weather overviewHow to use our weather pages